Location: Hains Lake
(37.8540°N, 99.8578°W)
Time: 18:59:04
(UTC+00:00)

Courier 1B Rocket - Pass Details

Date: 25 April 2021
Orbit: 920 x 1202 km, 28.2° (Epoch: 05 May)

Event Time Altitude Azimuth Distance (km) Brightness Sun altitude
Rises 01:40:08 0° 248° (WSW) 3,590 8.8 -3.9°
Reaches altitude 10° 01:42:53 10° 240° (WSW) 2,673 7.9 -4.4°
Maximum altitude 01:48:42 36° 176° (S) 1,519 5.9 -5.4°
Drops below altitude 10° 01:54:52 10° 112° (ESE) 2,840 6.7 -6.6°
Enters shadow 01:55:31 - 110° (ESE) 3,050 6.9 -6.7°
